Regional Weather Roundup
Issued by NWS

Home | Current Version | Previous Version | Graphics & Text | Print | Product List | Glossary Off
Versions: 1 2 3 4 5 6 7 8 9 10 11 12 13 14 15 16 17 18 19 20 21 22 23 24 25 26 27 28 29 30 31 32 33 34 35 36 37 38 39 40 41 42 43 44 45 46 47 48 49 50

000
ASUS43 KTOP 231259
RWRKS

WEATHER ROUNDUP FOR KANSAS
NATIONAL WEATHER SERVICE GOODLAND KS
800 AM CDT SAT MAY 23 2015

NOTE:  "FAIR" INDICATES FEW OR NO CLOUDS BELOW 12,000 FEET WITH NO
SIGNIFICANT WEATHER AND/OR OBSTRUCTIONS TO VISIBILITY.

KSZ001>006-013>018-027>032-041>047-231400-
NORTHWEST KANSAS

CITY           SKY/WX    TMP DP  RH WIND       PRES   REMARKS
GOODLAND       FOG       53  53 100 SE18G24   30.04R VSB 1/4
HAYS           CLOUDY    54  46  76 E10       30.11F
HILL CITY      CLOUDY    55  52  89 SE9       30.08F
RUSSELL        CLOUDY    55  54  96 SE7       30.11S
$$

KSZ061>065-074>080-084>089-231400-
SOUTHWEST KANSAS

CITY           SKY/WX    TMP DP  RH WIND       PRES   REMARKS
DODGE CITY     FOG       53  51  93 SE16      30.09S VSB 1/2
ELKHART          N/A     54  49  83 SE9         N/A
GARDEN CITY    TSTM      51  51 100 SE8G26    30.10R VSB 3/4
GREAT BEND     CLOUDY    54  52  94 SE12      30.12F
LIBERAL        CLOUDY    57  52  82 S7        30.13R
$$

KSZ066>073-081>083-090>101-231400-
SOUTHEAST KANSAS

CITY           SKY/WX    TMP DP  RH WIND       PRES   REMARKS
CHANUTE        CLOUDY    57  57 100 E8        30.19F FOG
COFFEYVILLE    CLOUDY    58  57  97 E8        30.18F
HUTCHINSON     CLOUDY    57  54  89 SE13      30.15R FOG
NEWTON         CLOUDY    55  52  88 SE10      30.18R
PARSONS        CLOUDY    58  57  97 VRB5      30.20F
WICHITA INTL   DRIZZLE   57  56  96 E9        30.15R FOG
WICHITA JABRA  CLOUDY    56  55  97 SE8       30.16R FOG
WICHITA MCCONL CLOUDY    57  55  94 E10       30.16R FOG
WINFIELD       CLOUDY    58  57  97 E8        30.17R FOG
$$

KSZ007>012-019>026-033>040-048>060-102>105-231400-
NORTHEAST KANSAS

CITY           SKY/WX    TMP DP  RH WIND       PRES   REMARKS
CONCORDIA      CLOUDY    54  53  97 SE8       30.16S
EMPORIA        CLOUDY    57  55  93 SE10      30.18S
LAWRENCE       CLOUDY    59  54  83 SE8       30.20F
MANHATTAN      CLOUDY    59  56  89 S8        30.16F
OLATHE IND     CLOUDY    58  54  86 SE12      30.21F
OLATHE EXE     LGT RAIN  57  55  93 S9        30.21F FOG
SALINA         CLOUDY    58  54  86 S12       30.16R
TOPEKA BILLARD CLOUDY    60  54  80 SE9       30.19F
TOPEKA FORBES  CLOUDY    60  54  80 SE8       30.18F
$$


USA.gov is the U.S. government's official web portal to all federal, state and local government web resources and services.